When you browse on this site, cookies collect data to enhance your experience and personalize the content and advertising you see.
Visit our Privacy Policy to learn more. By continuing to use the site, you agree to this use of cookies and data.
  • In United Kingdom
  • List of Countries
  • For 7 days
  • Water Temperature
  • Satellite Maps
  • Weather Map
  • Weather Widgets
  • user-avatar
    Login

    Hourly Weather Larne

    Today, 18 April, Thursday

    Time Temperature Precipitation Wind Pressure Humidity
    00:00 +8°C° 0 mm 7 mps 764 mmHg 89%
    01:00 +8°C° 0 mm 6 mps 764 mmHg 90%
    02:00 +8°C° 0 mm 5 mps 764 mmHg 92%
    03:00 +7°C° 0 mm 5 mps 764 mmHg 94%
    04:00 +7°C° 0 mm 5 mps 764 mmHg 94%
    05:00 +7°C° 0 mm 5 mps 764 mmHg 95%
    06:00 +7°C° 0 mm 4 mps 765 mmHg 94%
    07:00 +8°C° 0 mm 4 mps 765 mmHg 91%
    08:00 +9°C° 0 mm 5 mps 765 mmHg 88%
    09:00 +10°C° 0 mm 5 mps 765 mmHg 84%
    10:00 +10°C° 0 mm 5 mps 765 mmHg 82%
    11:00 +12°C° 0 mm 5 mps 765 mmHg 80%
    12:00 +13°C° 0 mm 6 mps 766 mmHg 78%
    13:00 +13°C° 0 mm 5 mps 765 mmHg 76%
    14:00 +14°C° 0 mm 5 mps 765 mmHg 74%
    15:00 +14°C° 0 mm 5 mps 765 mmHg 72%
    16:00 +14°C° 0 mm 4 mps 765 mmHg 75%
    17:00 +13°C° 0 mm 3 mps 766 mmHg 77%
    18:00 +13°C° 0 mm 3 mps 766 mmHg 80%
    19:00 +12°C° 0 mm 3 mps 766 mmHg 83%
    20:00 +12°C° 0 mm 2 mps 767 mmHg 86%
    21:00 +10°C° 0 mm 2 mps 767 mmHg 89%
    22:00 +10°C° 0 mm 3 mps 767 mmHg 90%
    23:00 +10°C° 0 mm 3 mps 767 mmHg 91%

    Tomorrow, 19 April, Friday

    Time Temperature Precipitation Wind Pressure Humidity
    00:00 +8°C° 0 mm 4 mps 768 mmHg 93%
    01:00 +8°C° 0 mm 4 mps 768 mmHg 94%
    02:00 +8°C° 0 mm 4 mps 768 mmHg 95%
    03:00 +8°C° 0 mm 4 mps 768 mmHg 95%
    04:00 +8°C° 0 mm 4 mps 768 mmHg 95%
    05:00 +8°C° 0 mm 4 mps 768 mmHg 95%
    06:00 +8°C° 0 mm 4 mps 768 mmHg 95%
    07:00 +9°C° 0 mm 5 mps 768 mmHg 91%
    08:00 +12°C° 0 mm 5 mps 768 mmHg 87%
    09:00 +13°C° 0 mm 5 mps 769 mmHg 82%
    10:00 +14°C° 0 mm 5 mps 769 mmHg 79%
    11:00 +15°C° 0 mm 6 mps 769 mmHg 76%
    12:00 +16°C° 0 mm 6 mps 769 mmHg 73%
    13:00 +16°C° 0 mm 6 mps 769 mmHg 72%
    14:00 +16°C° 0 mm 6 mps 768 mmHg 72%
    15:00 +16°C° 0 mm 6 mps 768 mmHg 71%
    16:00 +15°C° 0 mm 5 mps 768 mmHg 74%
    17:00 +14°C° 0 mm 5 mps 768 mmHg 77%
    18:00 +13°C° 0 mm 4 mps 768 mmHg 79%
    19:00 +13°C° 0 mm 4 mps 769 mmHg 80%
    20:00 +12°C° 0 mm 4 mps 769 mmHg 80%
    21:00 +11°C° 0 mm 4 mps 769 mmHg 80%
    22:00 +11°C° 0 mm 4 mps 769 mmHg 80%
    23:00 +11°C° 0 mm 3 mps 769 mmHg 80%

    Day after tomorrow, 20 April, Saturday

    Time Temperature Precipitation Wind Pressure Humidity
    00:00 +11°C° 0 mm 3 mps 769 mmHg 80%
    01:00 +11°C° 0 mm 3 mps 769 mmHg 83%
    02:00 +10°C° 0 mm 3 mps 769 mmHg 85%
    03:00 +10°C° 0 mm 3 mps 769 mmHg 88%
    04:00 +10°C° 0 mm 3 mps 769 mmHg 89%
    05:00 +10°C° 0 mm 3 mps 769 mmHg 90%
    06:00 +9°C° 0 mm 3 mps 769 mmHg 91%
    07:00 +11°C° 0 mm 3 mps 769 mmHg 88%
    08:00 +14°C° 0 mm 2 mps 769 mmHg 85%
    09:00 +15°C° 0 mm 2 mps 769 mmHg 82%
    10:00 +16°C° 0 mm 2 mps 769 mmHg 80%
    11:00 +18°C° 0 mm 2 mps 769 mmHg 78%
    12:00 +20°C° 0 mm 1 mps 769 mmHg 75%
    13:00 +19°C° 0.1 mm 1 mps 769 mmHg 79%
    14:00 +18°C° 0.1 mm 1 mps 769 mmHg 83%
    15:00 +16°C° 0.1 mm 1 mps 769 mmHg 88%
    16:00 +15°C° 0.2 mm 2 mps 769 mmHg 90%
    17:00 +14°C° 0.2 mm 3 mps 769 mmHg 93%
    18:00 +13°C° 0.2 mm 4 mps 769 mmHg 96%
    19:00 +12°C° 0.3 mm 4 mps 769 mmHg 96%
    20:00 +11°C° 0.3 mm 4 mps 769 mmHg 95%
    21:00 +10°C° 0.3 mm 3 mps 769 mmHg 95%
    22:00 +10°C° 0.3 mm 3 mps 768 mmHg 95%
    23:00 +9°C° 0.3 mm 3 mps 768 mmHg 95%

    21 April, Sunday

    Time Temperature Precipitation Wind Pressure Humidity
    00:00 +9°C° 0.3 mm 2 mps 767 mmHg 95%
    01:00 +9°C° 0.5 mm 2 mps 767 mmHg 95%
    02:00 +9°C° 0.5 mm 2 mps 766 mmHg 95%
    03:00 +9°C° 0.5 mm 2 mps 765 mmHg 95%
    04:00 +10°C° 0.2 mm 1 mps 765 mmHg 96%
    05:00 +10°C° 0.2 mm 1 mps 764 mmHg 96%
    06:00 +10°C° 0.2 mm 1 mps 763 mmHg 97%
    07:00 +10°C° 0 mm 2 mps 763 mmHg 96%
    08:00 +11°C° 0 mm 3 mps 762 mmHg 96%
    09:00 +12°C° 0 mm 3 mps 762 mmHg 95%
    10:00 +13°C° 0 mm 4 mps 761 mmHg 89%
    11:00 +15°C° 0 mm 5 mps 761 mmHg 82%
    12:00 +16°C° 0 mm 6 mps 760 mmHg 76%
    13:00 +17°C° 0 mm 6 mps 759 mmHg 74%
    14:00 +17°C° 0 mm 7 mps 759 mmHg 72%
    15:00 +17°C° 0 mm 7 mps 758 mmHg 71%
    16:00 +17°C° 0 mm 7 mps 757 mmHg 74%
    17:00 +16°C° 0 mm 6 mps 757 mmHg 77%
    18:00 +15°C° 0 mm 6 mps 756 mmHg 81%
    19:00 +14°C° 0 mm 6 mps 756 mmHg 82%
    20:00 +13°C° 0 mm 6 mps 756 mmHg 84%
    21:00 +11°C° 0 mm 6 mps 756 mmHg 85%
    22:00 +11°C° 0 mm 6 mps 755 mmHg 85%
    23:00 +10°C° 0 mm 6 mps 755 mmHg 85%

    22 April, Monday

    Time Temperature Precipitation Wind Pressure Humidity
    00:00 +9°C° 0 mm 6 mps 755 mmHg 86%
    01:00 +9°C° 0 mm 5 mps 754 mmHg 88%
    02:00 +9°C° 0 mm 5 mps 754 mmHg 89%
    03:00 +8°C° 0 mm 5 mps 754 mmHg 91%
    04:00 +8°C° 0 mm 6 mps 753 mmHg 92%
    05:00 +8°C° 0 mm 6 mps 753 mmHg 92%
    06:00 +8°C° 0 mm 6 mps 753 mmHg 92%
    07:00 +10°C° 0 mm 6 mps 753 mmHg 88%
    08:00 +11°C° 0 mm 7 mps 753 mmHg 84%
    09:00 +14°C° 0 mm 7 mps 753 mmHg 79%
    10:00 +14°C° 0 mm 7 mps 753 mmHg 76%
    11:00 +15°C° 0 mm 8 mps 752 mmHg 73%
    12:00 +15°C° 0 mm 8 mps 752 mmHg 69%
    13:00 +15°C° 0 mm 7 mps 752 mmHg 68%
    14:00 +16°C° 0 mm 7 mps 752 mmHg 67%
    15:00 +16°C° 0 mm 7 mps 751 mmHg 67%
    16:00 +15°C° 0 mm 6 mps 751 mmHg 70%
    17:00 +15°C° 0 mm 5 mps 752 mmHg 74%
    18:00 +14°C° 0 mm 5 mps 752 mmHg 77%
    19:00 +13°C° 0 mm 4 mps 752 mmHg 81%
    20:00 +12°C° 0 mm 4 mps 752 mmHg 85%
    21:00 +10°C° 0 mm 3 mps 752 mmHg 90%
    22:00 +10°C° 0 mm 3 mps 753 mmHg 90%
    23:00 +10°C° 0 mm 3 mps 753 mmHg 90%

    23 April, Tuesday

    Time Temperature Precipitation Wind Pressure Humidity
    00:00 +10°C° 0 mm 3 mps 753 mmHg 89%
    01:00 +10°C° 0 mm 3 mps 753 mmHg 91%
    02:00 +10°C° 0 mm 4 mps 753 mmHg 93%
    03:00 +8°C° 0 mm 4 mps 752 mmHg 95%
    04:00 +8°C° 0 mm 4 mps 753 mmHg 94%
    05:00 +9°C° 0 mm 3 mps 753 mmHg 93%
    06:00 +9°C° 0 mm 3 mps 753 mmHg 92%
    07:00 +10°C° 0 mm 3 mps 753 mmHg 86%
    08:00 +12°C° 0 mm 3 mps 753 mmHg 81%
    09:00 +13°C° 0 mm 3 mps 753 mmHg 76%
    10:00 +15°C° 0 mm 2 mps 753 mmHg 73%
    11:00 +15°C° 0 mm 2 mps 753 mmHg 71%
    12:00 +16°C° 0 mm 2 mps 753 mmHg 68%
    13:00 +16°C° 0 mm 2 mps 753 mmHg 67%
    14:00 +17°C° 0 mm 2 mps 753 mmHg 65%
    15:00 +17°C° 0 mm 2 mps 753 mmHg 63%
    16:00 +16°C° 0 mm 2 mps 753 mmHg 68%
    17:00 +16°C° 0 mm 2 mps 753 mmHg 72%
    18:00 +16°C° 0 mm 1 mps 753 mmHg 77%
    19:00 +14°C° 0 mm 2 mps 753 mmHg 80%
    20:00 +13°C° 0 mm 2 mps 754 mmHg 83%
    21:00 +12°C° 0 mm 2 mps 754 mmHg 86%
    22:00 +10°C° 0 mm 3 mps 754 mmHg 87%
    23:00 +10°C° 0 mm 4 mps 755 mmHg 87%
    Show more